Location: Newark
(7.0858°N, 171.3717°E)
Time: 15:12:22
(UTC+00:00)

Vanguard 3 - Pass Details

Date: 27 November 2020
Orbit: 508 x 3262 km, 33.4° (Epoch: 14 January)

Event Time Altitude Azimuth Distance (km) Brightness Sun altitude
Exits shadow 17:34:37 16° 289° (WNW) 3,754 9.8 -13.7°
Maximum altitude 17:44:54 62° 214° (SW) 2,769 9.7 -11.3°
Drops below altitude 10° 18:03:34 10° 137° (SE) 6,150 12.8 -6.9°
Sets 18:08:43 0° 134° (SE) 7,228 13.4 -5.7°
